Regional Weather Roundup
Issued by NWS Glasgow, MT

Home | Current Version | Previous Version | Text Only | Print | Product List | Glossary On
Versions: 1 2 3 4 5 6 7 8 9 10 11 12 13 14 15 16 17 18 19 20 21 22 23 24 25 26 27 28 29 30 31 32 33 34 35 36 37 38 39 40 41 42 43 44 45 46 47 48 49 50
000
ASUS45 KGGW 010515
RWRGGW
HOURLY REGIONAL WEATHER ROUNDUP FOR NORTHEAST MONTANA
NATIONAL WEATHER SERVICE GLASGOW MONTANA
1100 PM MDT SAT APR 30 2016

NOTE: "FAIR" INDICATES FEW OR NO CLOUDS BELOW 12,000 FEET WITH NO
SIGNIFICANT WEATHER AND/OR OBSTRUCTIONS TO VISISBILITY.

NORTHEAST MONTANA


CITY           SKY/WX    TMP DP  RH WIND       PRES   REMARKS
GLASGOW        CLEAR     45  30  55 E6        30.31S
PLENTYWOOD       N/A     46  25  43 NE8         N/A
WOLF POINT     CLEAR     43  33  68 N5        30.32R
JORDAN           N/A     39  35  86 CALM      30.31R
WINNETT          N/A     40  34  79 SW3         N/A
SIDNEY         CLEAR     43  30  61 NW7       30.31S
GLENDIVE       CLEAR     45  32  61 NE5       30.33S
MALTA            N/A     42  34  73 SW2         N/A
SCOBEY           N/A     38  21  51 CALM      30.29S
OPHEIM           N/A     48  25  40 CALM      30.20S

FORT PECK REPORTS


CITY           SKY/WX    TMP DP  RH WIND       PRES   REMARKS
FORT PECK        N/A     50  29  44 E6          N/A
THE PINES        N/A     50  30  46 S2          N/A

SOUTHEAST MONTANA


CITY           SKY/WX    TMP DP  RH WIND       PRES   REMARKS
BILLINGS       CLOUDY    43  34  70 N3        30.31S
MILES CITY     CLEAR     45  33  63 NE6       30.30R
BAKER          CLEAR     37  29  72 E5        30.30S
LIVINGSTON     CLOUDY    41  34  76 E6        30.31R

CENTRAL MONTANA


CITY           SKY/WX    TMP DP  RH WIND       PRES   REMARKS
HAVRE          CLEAR     45  36  70 SE3       30.33R
LEWISTOWN      CLOUDY    45  35  68 S3        30.34R
GREAT FALLS    CLEAR     42  33  70 E6        30.33R
CUT BANK       PTCLDY    45  35  68 NW3       30.34R
HELENA         MOCLDY    41  35  79 W7        30.30S
BUTTE          CLOUDY    43  29  57 VRB5G17   30.29R
BOZEMAN        CLOUDY    45  31  58 E5        30.29S

WESTERN MONTANA


CITY           SKY/WX    TMP DP  RH WIND       PRES   REMARKS
MISSOULA       CLOUDY    51  40  65 SE3       30.29R
KALISPELL      NOT AVBL

NORTH DAKOTA


CITY           SKY/WX    TMP DP  RH WIND       PRES   REMARKS
WILLISTON      CLEAR     41  30  65 N5        30.31R
DICKINSON      CLEAR     43  26  51 NE5       30.27S
MINOT          CLEAR     43  27  53 N7        30.30R
BISMARCK       CLEAR     39  31  72 E5        30.27R

SOUTHERN SASKATCHEWAN


CITY           SKY/WX    TMP DP  RH WIND       PRES   REMARKS
REGINA         CLEAR     46  25  42 E8        30.33R
ESTEVAN        NOT AVBL
SWIFT CURRENT  CLEAR     46  27  46 S9        30.31R




USA.gov is the U.S. government's official web portal to all federal, state and local government web resources and services.